Terminal Aerodrome Forecast
Issued by NWS Norman, OK

Home | Current Version | Previous Version | Text Only | Print | Product List | Glossary On
Versions: 1 2 3 4 5 6 7 8 9 10 11 12 13 14 15 16 17 18 19 20 21 22 23 24 25 26 27 28 29 30 31 32
000
FTUS44 KOUN 200523
TAFOKC
TAF
KOKC 200523Z 2006/2106 17012KT P6SM SCT100
      TEMPO 2012/2015 BKN100
     FM201500 19015G25KT P6SM SCT100=

USA.gov is the U.S. government's official web portal to all federal, state and local government web resources and services.